[[{"header":{"parameterUnit":"m.s-1","parameterCategory":1,"la1":30.2991,"la2":30.254,"lo1":-89.0895,"lo2":-89.0444,"dy":0.0017,"dx":0.0017,"nx":28,"ny":28,"refTime":"2026-02-27T03:00:00:Z","depth":0,"parameterNumber":2,"parameterNumberName":"U-component_of_WINDS"},"data":[0,0,0,0,0,0,0,0,0,0,0,0,0,0,0,0,0,0,0,0,0,0,0,0,0,0,0,0,0,0,0,0,0,0,0,0,0,0,0,0,0,0,0,0,0,0,0,0,0,0,0,0,0,0,0,0,0,0,-0.2335,-0.2336,0,-0.2413,-0.2414,-0.2415,-0.2459,-0.2459,-0.2459,-0.2459,-0.2539,-0.2541,-0.2543,0,0,0,0,0,0,0,0,0,0,0,0,0,-0.2222,-0.2224,-0.2335,-0.2336,-0.2337,-0.2413,-0.2414,-0.2415,-0.2459,-0.2459,-0.2459,-0.2459,-0.2539,-0.2541,-0.2543,0,0,0,0,0,0,0,0,0,0,0,0,0,-0.2283,-0.2225,-0.2334,-0.2368,-0.2371,-0.2413,-0.2414,-0.2416,-0.2459,-0.2459,-0.2459,-0.2459,-0.2538,-0.2541,-0.2544,-0.2558,0,0,-0.2553,-0.2554,0,0,0,0,0,0,0,0,-0.2279,-0.2287,-0.2362,-0.2365,-0.237,-0.2427,-0.2404,-0.2463,-0.2459,-0.2426,-0.2459,-0.246,-0.2502,-0.2508,-0.2522,-0.2562,-0.2566,-0.2553,-0.2555,-0.2556,-0.2557,0,0,0,0,0,0,0,-0.2275,-0.2284,-0.2366,-0.2363,-0.2368,-0.2379,-0.2387,-0.2415,-0.2461,-0.2429,-0.2432,-0.2441,-0.2504,-0.2519,-0.2524,-0.2567,-0.2553,-0.2556,-0.2558,-0.2559,-0.2624,-0.2624,0,0,0,0,0,0,-0.2266,-0.228,-0.2363,-0.2368,-0.2324,-0.238,-0.239,-0.2408,-0.2461,-0.247,-0.244,-0.2442,-0.2514,-0.252,-0.2527,-0.2548,-0.2556,-0.2559,-0.2561,-0.2624,-0.2624,-0.2624,0,0,0,0,0,0,-0.2263,-0.2273,-0.236,-0.2325,-0.2337,-0.2382,-0.2402,-0.241,-0.2425,-0.247,-0.2479,-0.2447,-0.2514,-0.2523,-0.255,-0.2551,-0.256,-0.2563,-0.2624,-0.2624,-0.2624,-0.259,0,0,0,0,0,0,-0.226,-0.2272,-0.2277,-0.2325,-0.2339,-0.2382,-0.2402,-0.2411,-0.243,-0.2433,-0.2479,-0.2487,-0.2515,-0.2546,-0.2553,-0.2556,-0.2566,-0.2624,-0.2624,-0.2624,-0.2591,-0.2588,-0.2586,0,0,0,0,0,-0.2256,-0.2264,-0.2277,-0.2287,-0.2347,-0.2382,-0.239,-0.2422,-0.243,-0.2436,-0.2466,-0.2485,-0.255,-0.2548,-0.2557,-0.256,-0.2624,-0.2624,-0.2624,-0.2592,-0.2589,-0.2586,0,0,0,0,0,0,-0.2216,-0.2271,-0.2286,-0.2311,-0.2341,-0.2389,-0.2398,-0.2418,-0.2447,-0.2448,-0.2487,-0.2497,-0.2521,-0.2544,-0.2541,-0.2578,-0.2589,-0.2591,-0.2562,-0.2559,-0.2557,-0.2551,-0.2568,0,0,0,0,0,-0.221,-0.2233,-0.2281,-0.2298,-0.2312,-0.2353,-0.2369,-0.2391,-0.2424,-0.2437,-0.2469,-0.25,-0.2528,-0.2545,-0.2573,-0.2595,-0.2605,-0.2601,-0.2599,-0.2597,-0.2597,-0.2611,-0.261,-0.2623,-0.2623,-0.2623,0,0,-0.2197,-0.2231,-0.2243,-0.2291,-0.2317,-0.2341,-0.2363,-0.2387,-0.2405,-0.2441,-0.2469,-0.2493,-0.2531,-0.2556,-0.2568,-0.2575,-0.2597,-0.2597,-0.2594,-0.2597,-0.2611,-0.261,-0.2608,-0.2623,-0.2623,-0.2623,0,0,-0.2187,-0.2215,-0.2233,-0.2259,-0.2298,-0.2325,-0.2329,-0.2374,-0.2392,-0.2421,-0.2449,-0.2471,-0.2517,-0.2543,-0.2562,-0.2563,-0.2582,-0.2571,-0.2558,-0.2571,-0.257,-0.2569,-0.257,-0.2569,-0.2571,-0.2571,-0.2571,0,-0.2167,-0.2204,-0.2239,-0.2262,-0.2282,-0.2316,-0.2334,-0.2357,-0.2404,-0.2417,-0.2424,-0.2484,-0.2512,-0.2543,-0.2543,-0.2558,-0.2564,-0.2565,-0.2568,-0.2567,-0.2567,-0.2568,-0.2568,-0.257,-0.257,-0.257,-0.257,0,-0.2177,-0.2203,-0.2212,-0.2256,-0.2278,-0.2298,-0.2336,-0.2353,-0.2374,-0.24,-0.2429,-0.2464,-0.2499,-0.2509,-0.2529,-0.2543,-0.2547,-0.256,-0.2572,-0.2564,-0.2565,-0.2566,-0.2567,-0.2568,-0.2568,-0.2569,0,0,-0.2143,-0.2207,-0.221,-0.2231,-0.2278,-0.2298,-0.232,-0.2355,-0.2369,-0.24,-0.242,-0.2459,-0.2472,-0.2494,-0.2518,-0.2529,-0.2528,-0.2542,-0.2543,-0.2538,-0.2546,-0.2535,-0.2535,-0.2541,-0.2541,-0.2542,-0.2543,0,-0.214,-0.2181,-0.2213,-0.2242,-0.2266,-0.2299,-0.2318,-0.2349,-0.2374,-0.2398,-0.2426,-0.2453,-0.2469,-0.2482,-0.2495,-0.2525,-0.253,-0.2525,-0.256,-0.256,-0.2549,-0.2536,-0.2524,-0.2523,-0.2544,-0.2544,-0.2544,0,-0.2141,-0.2171,-0.2202,-0.2247,-0.2258,-0.2275,-0.231,-0.2332,-0.2368,-0.2386,-0.2411,-0.2436,-0.2461,-0.2471,-0.2506,-0.2503,-0.2519,-0.2536,-0.2537,-0.2541,-0.2551,-0.2539,-0.2524,-0.2524,-0.2545,-0.2545,-0.2545,0,-0.2112,-0.2161,-0.2186,-0.2203,-0.2256,-0.2267,-0.2289,-0.2326,-0.2345,-0.2376,-0.2389,-0.2422,-0.244,-0.2466,-0.2499,-0.2504,-0.2531,-0.2544,-0.2546,-0.2546,-0.255,-0.2549,-0.2537,-0.2561,-0.2561,-0.2561,-0.2561,0,-0.2104,-0.2122,-0.2174,-0.2189,-0.221,-0.2248,-0.2268,-0.2293,-0.2325,-0.2346,-0.2378,-0.2397,-0.244,-0.2465,-0.2491,-0.2516,-0.2524,-0.2539,-0.2546,-0.2536,-0.2534,-0.2547,-0.2548,-0.2561,-0.2561,-0.2561,-0.2561,0,-0.2076,-0.2111,-0.2141,-0.2189,-0.2201,-0.2215,-0.2256,-0.2272,-0.23,-0.2326,-0.2335,-0.2378,-0.2408,-0.2444,-0.2487,-0.2505,-0.2528,-0.2538,-0.2515,-0.2519,-0.2519,-0.2519,-0.2515,-0.2516,-0.2539,-0.2539,-0.2538,0,-0.2068,-0.2082,-0.2132,-0.2149,-0.217,-0.2196,-0.2216,-0.2254,-0.2274,-0.2317,-0.2328,-0.2361,-0.2389,-0.2437,-0.2472,-0.2505,-0.2516,-0.2512,-0.2521,-0.2511,-0.2516,-0.2514,-0.2516,-0.251,-0.2509,-0.2509,-0.2509,0,-0.205,-0.2067,-0.2095,-0.2129,-0.2152,-0.2181,-0.2211,-0.2222,-0.2267,-0.2287,-0.2319,-0.2341,-0.2385,-0.2417,-0.2455,-0.2479,-0.2501,-0.2506,-0.2508,-0.2498,-0.2484,-0.2491,-0.2508,-0.2505,-0.2506,-0.2506,-0.2506,-0.2506,-0.2031,-0.2046,-0.2083,-0.2114,-0.214,-0.2168,-0.2186,-0.2216,-0.2243,-0.2281,-0.2303,-0.2334,-0.2371,-0.2423,-0.2447,-0.2472,-0.248,-0.2483,-0.2484,-0.2484,-0.2481,-0.2481,-0.2479,-0.2479,-0.2479,-0.2479,-0.248,0,-0.2015,-0.2041,-0.2068,-0.211,-0.2133,-0.2153,-0.2188,-0.2206,-0.2233,-0.2266,-0.2293,-0.233,-0.2363,-0.2401,-0.2435,-0.2449,-0.246,-0.2456,-0.2455,-0.2461,-0.2472,-0.2466,-0.2447,-0.2447,-0.2447,-0.2447,-0.2447,-0.2447,-0.2009,-0.2035,-0.2057,-0.2096,-0.2123,-0.2153,-0.2172,-0.2197,-0.2224,-0.2263,-0.229,-0.2315,-0.235,-0.2388,-0.2419,-0.2429,-0.2441,-0.2434,-0.2447,-0.2457,-0.246,-0.2462,-0.2457,-0.2436,-0.2436,-0.2434,-0.2434,-0.2434]},{"header":{"parameterUnit":"m.s-1","parameterCategory":1,"la1":30.2991,"la2":30.254,"lo1":-89.0895,"lo2":-89.0444,"dy":0.0017,"dx":0.0017,"nx":28,"ny":28,"refTime":"2026-02-27T03:00:00:Z","depth":0,"parameterNumber":3,"parameterNumberName":"V-component_of_WINDS"},"data":[0,0,0,0,0,0,0,0,0,0,0,0,0,0,0,0,0,0,0,0,0,0,0,0,0,0,0,0,0,0,0,0,0,0,0,0,0,0,0,0,0,0,0,0,0,0,0,0,0,0,0,0,0,0,0,0,0,0,2.5548,2.5548,0,2.5539,2.5539,2.5539,2.553,2.553,2.553,2.5529,2.5519,2.5519,2.5519,0,0,0,0,0,0,0,0,0,0,0,0,0,2.5557,2.5557,2.5548,2.5548,2.5548,2.5539,2.5539,2.5539,2.553,2.553,2.553,2.5529,2.5519,2.5519,2.5519,0,0,0,0,0,0,0,0,0,0,0,0,0,2.5551,2.5557,2.5548,2.5543,2.5542,2.5539,2.5539,2.5539,2.553,2.553,2.553,2.5529,2.5519,2.5519,2.5519,2.5521,0,0,2.5518,2.5518,0,0,0,0,0,0,0,0,2.5551,2.5551,2.5543,2.5543,2.5542,2.5536,2.5538,2.5533,2.553,2.5534,2.5529,2.5529,2.5525,2.5524,2.5523,2.552,2.552,2.5518,2.5518,2.5518,2.5518,0,0,0,0,0,0,0,2.5552,2.5551,2.5545,2.5543,2.5543,2.554,2.5539,2.5537,2.5531,2.5534,2.5533,2.5532,2.5524,2.5523,2.5522,2.552,2.5518,2.5518,2.5518,2.5518,2.5519,2.5519,0,0,0,0,0,0,2.5553,2.5551,2.5545,2.5544,2.5546,2.554,2.5539,2.5538,2.5531,2.5529,2.5533,2.5532,2.5523,2.5523,2.5522,2.5524,2.5518,2.5518,2.5517,2.5519,2.5519,2.5519,0,0,0,0,0,0,2.5553,2.5553,2.5545,2.5548,2.5547,2.554,2.5539,2.5538,2.5536,2.553,2.5528,2.5532,2.5523,2.5522,2.5521,2.5524,2.5517,2.5517,2.5519,2.5519,2.5519,2.5529,0,0,0,0,0,0,2.5554,2.5553,2.5554,2.5548,2.5547,2.5545,2.5539,2.5538,2.5536,2.5535,2.5529,2.5528,2.5523,2.5522,2.5521,2.5523,2.5517,2.5519,2.5519,2.5519,2.5528,2.5529,2.553,0,0,0,0,0,2.5554,2.5557,2.5554,2.5553,2.5548,2.5545,2.5545,2.5539,2.5536,2.5537,2.5533,2.5528,2.5524,2.5522,2.5521,2.5523,2.5518,2.5519,2.5519,2.5528,2.5529,2.553,0,0,0,0,0,0,2.5563,2.5556,2.5553,2.5553,2.555,2.5544,2.5545,2.5541,2.5538,2.5537,2.553,2.5529,2.5529,2.5526,2.5524,2.5525,2.552,2.5521,2.5527,2.5528,2.5529,2.553,2.5517,0,0,0,0,0,2.5565,2.5564,2.5558,2.5559,2.5557,2.5551,2.555,2.5546,2.5543,2.5541,2.5537,2.5533,2.5531,2.5529,2.5527,2.5528,2.5526,2.5529,2.553,2.5531,2.5531,2.5531,2.5533,2.5521,2.5521,2.5521,0,0,2.5569,2.5565,2.5565,2.5561,2.5558,2.5557,2.555,2.5549,2.5549,2.5541,2.554,2.5536,2.5532,2.5532,2.5532,2.5529,2.5534,2.5531,2.5532,2.5532,2.5532,2.5533,2.5534,2.5521,2.5521,2.5521,0,0,2.5576,2.5573,2.5574,2.5571,2.5567,2.5563,2.5563,2.5557,2.5555,2.5554,2.5548,2.5547,2.5543,2.554,2.5538,2.5544,2.5539,2.5543,2.5549,2.5549,2.555,2.5551,2.5553,2.5554,2.5543,2.5543,2.5543,0,2.5582,2.5581,2.5575,2.5575,2.5573,2.5566,2.5567,2.5564,2.5559,2.5558,2.5555,2.555,2.5547,2.5546,2.5548,2.5546,2.5546,2.5544,2.555,2.5551,2.5552,2.5554,2.5555,2.5544,2.5544,2.5544,2.5544,0,2.5588,2.5587,2.5588,2.5584,2.5582,2.5583,2.5577,2.5576,2.5572,2.5568,2.5567,2.5562,2.5559,2.5558,2.5554,2.5557,2.5556,2.5552,2.5547,2.5554,2.5556,2.5556,2.5545,2.5544,2.5544,2.5544,0,0,2.5601,2.5594,2.5594,2.5592,2.5587,2.5586,2.5585,2.5582,2.5582,2.5578,2.5578,2.5575,2.5571,2.5569,2.5565,2.5565,2.557,2.5561,2.5561,2.5563,2.5574,2.5577,2.5578,2.5567,2.5567,2.5568,2.5574,0,2.5608,2.5607,2.5602,2.5603,2.5602,2.5596,2.5595,2.5592,2.5588,2.5587,2.5582,2.558,2.5576,2.5574,2.5574,2.557,2.5572,2.5569,2.5567,2.5567,2.5569,2.5579,2.5583,2.5589,2.5575,2.5575,2.5575,0,2.5616,2.5613,2.5614,2.5609,2.5608,2.5608,2.5605,2.5604,2.56,2.5597,2.5594,2.5589,2.5588,2.5584,2.5582,2.558,2.5579,2.5577,2.5577,2.5577,2.5572,2.558,2.5591,2.5592,2.5576,2.5576,2.5576,0,2.5626,2.5622,2.5623,2.5621,2.5615,2.5615,2.5612,2.5608,2.5606,2.5603,2.5602,2.5599,2.5598,2.5595,2.5589,2.5586,2.5589,2.5583,2.5586,2.5587,2.5588,2.5588,2.5599,2.5586,2.5586,2.5586,2.5586,0,2.5634,2.5635,2.5627,2.5628,2.5628,2.5622,2.5623,2.562,2.5616,2.5615,2.5608,2.5608,2.56,2.5599,2.5594,2.5594,2.5593,2.5591,2.559,2.5592,2.5592,2.5591,2.5591,2.5586,2.5586,2.5586,2.5586,0,2.5646,2.564,2.564,2.5634,2.5633,2.5634,2.5629,2.5628,2.5624,2.5623,2.5623,2.5616,2.5614,2.5608,2.5604,2.5601,2.5602,2.56,2.5604,2.5603,2.5607,2.5607,2.5619,2.562,2.5605,2.5605,2.5606,0,2.5652,2.5653,2.5647,2.5646,2.5644,2.5642,2.5641,2.5634,2.5633,2.5628,2.5629,2.5626,2.5624,2.562,2.5615,2.5612,2.561,2.5614,2.5609,2.5611,2.561,2.5611,2.5611,2.5615,2.5616,2.5616,2.5616,0,2.5663,2.5661,2.5659,2.5656,2.5655,2.5652,2.5649,2.5649,2.5642,2.5641,2.5639,2.5637,2.5633,2.563,2.5627,2.5623,2.5619,2.5617,2.5618,2.562,2.5623,2.5622,2.5607,2.5617,2.5617,2.5617,2.5617,2.5617,2.5673,2.5673,2.5669,2.5667,2.5665,2.5662,2.5662,2.5658,2.5656,2.5653,2.5649,2.5647,2.5642,2.5637,2.5634,2.5632,2.563,2.5631,2.5631,2.5631,2.5633,2.5623,2.5632,2.5632,2.5632,2.5631,2.5631,0,2.5684,2.5681,2.568,2.5676,2.5675,2.567,2.5667,2.5666,2.5665,2.5661,2.5659,2.5657,2.5654,2.5648,2.5645,2.5645,2.5643,2.5645,2.5645,2.5644,2.5635,2.5635,2.5647,2.5647,2.5647,2.5647,2.5647,2.5647,2.569,2.5691,2.5688,2.5687,2.5684,2.5682,2.5681,2.5678,2.5675,2.5673,2.5671,2.5667,2.5663,2.566,2.5657,2.5655,2.5655,2.5657,2.5655,2.5646,2.5645,2.5644,2.5644,2.5657,2.5657,2.5665,2.5665,2.5665]}]]